TimePDT,TemperatureF,Dew PointF,Humidity,Sea Level PressureIn,VisibilityMPH,Wind Direction,Wind SpeedMPH,Gust SpeedMPH,PrecipitationIn,Events,Conditions,WindDirDegrees,DateUTC
12:51 AM,64.0,59.0,84,29.89,10.0,Calm,Calm,-,N/A,,Clear,0,2012-10-07 07:51:00
1:51 AM,63.0,57.9,84,29.89,10.0,Calm,Calm,-,N/A,,Clear,0,2012-10-07 08:51:00
2:51 AM,63.0,57.9,84,29.88,9.0,North,3.5,-,N/A,,Clear,360,2012-10-07 09:51:00
3:51 AM,63.0,57.9,84,29.88,9.0,Calm,Calm,-,N/A,,Clear,0,2012-10-07 10:51:00
4:51 AM,62.1,57.0,84,29.88,9.0,Calm,Calm,-,N/A,,Clear,0,2012-10-07 11:51:00
5:51 AM,62.1,57.0,84,29.88,9.0,Calm,Calm,-,N/A,,Clear,0,2012-10-07 12:51:00
6:51 AM,60.1,55.9,86,29.90,9.0,Calm,Calm,-,N/A,,Partly Cloudy,0,2012-10-07 13:51:00
7:51 AM,61.0,57.0,87,29.92,7.0,Calm,Calm,-,N/A,,Clear,0,2012-10-07 14:51:00
8:51 AM,64.9,57.9,78,29.93,7.0,Calm,Calm,-,N/A,,Clear,0,2012-10-07 15:51:00
9:51 AM,70.0,57.9,65,29.92,8.0,Calm,Calm,-,N/A,,Clear,0,2012-10-07 16:51:00
10:51 AM,73.9,57.9,57,29.91,10.0,SSE,4.6,-,N/A,,Clear,160,2012-10-07 17:51:00
11:51 AM,77.0,55.9,48,29.90,10.0,Variable,5.8,-,N/A,,Partly Cloudy,0,2012-10-07 18:51:00
12:51 PM,80.1,55.9,43,29.88,10.0,Variable,6.9,-,N/A,,Scattered Clouds,0,2012-10-07 19:51:00
1:51 PM,80.1,57.9,47,29.86,10.0,SSE,9.2,-,N/A,,Partly Cloudy,150,2012-10-07 20:51:00
2:51 PM,80.1,59.0,48,29.84,10.0,SSE,10.4,-,N/A,,Partly Cloudy,150,2012-10-07 21:51:00
3:51 PM,80.1,57.9,47,29.84,10.0,SSE,10.4,-,N/A,,Partly Cloudy,160,2012-10-07 22:51:00
4:51 PM,79.0,57.0,47,29.84,10.0,SSE,9.2,-,N/A,,Clear,160,2012-10-07 23:51:00
5:51 PM,77.0,55.0,47,29.85,10.0,WNW,5.8,-,N/A,,Clear,300,2012-10-08 00:51:00
6:51 PM,73.9,55.9,53,29.86,10.0,Calm,Calm,-,N/A,,Clear,0,2012-10-08 01:51:00
7:51 PM,72.0,55.0,55,29.88,10.0,Calm,Calm,-,N/A,,Clear,0,2012-10-08 02:51:00
8:51 PM,70.0,55.0,59,29.90,10.0,Calm,Calm,-,N/A,,Clear,0,2012-10-08 03:51:00
9:51 PM,68.0,55.0,63,29.91,10.0,Calm,Calm,-,N/A,,Clear,0,2012-10-08 04:51:00
10:51 PM,66.9,54.0,63,29.90,10.0,Calm,Calm,-,N/A,,Clear,0,2012-10-08 05:51:00
11:51 PM,66.0,54.0,65,29.90,10.0,Calm,Calm,-,N/A,,Clear,0,2012-10-08 06:51:00